Location: Unspecified
(0.0000°N, 0.0000°E)
Time: 06:18:29
(UTC+00:00)

Vanguard 2 - Pass Details

Date: 20 September 2019
Orbit: 554 x 2937 km, 32.9° (Epoch: 14 October)

Event Time Altitude Azimuth Distance (km) Brightness Sun altitude
Rises 11:40:04 0° 301° (WNW) 2,713 10.3 86.5°
Reaches altitude 10° 11:42:11 10° 299° (WNW) 1,823 9.6 87.0°
Maximum altitude 11:46:07 72° 214° (SSW) 638 8.9 87.8°
Drops below altitude 10° 11:51:06 10° 130° (SE) 2,294 10.1 88.7°
Sets 11:54:03 0° 128° (SE) 3,502 10.9 88.9°
